{"data":{"norad_id":53794,"intl_designator":"2022-111X","name":"STARLINK-4730","alt_names":[],"object_type":"PAYLOAD","status":"ACTIVE","operator":null,"country":"US","launch_date":"2022-09-11","launch_site_code":"AFETR","launch_vehicle":null,"mission":null,"orbit_class":"UNKNOWN","rcs_meters":null,"size_class":null,"mass_kg":null,"dimensions":null,"purposes":["comms"],"wikipedia_slug":null,"has_3d_model":false,"image_url":null,"decayed_at":null,"tle_current":{"epoch":"2026-09-20T22:05:27.267936Z","epoch_age_seconds":47997,"freshness":"FRESH","line1":"1 53794U 22111X   26263.92045449  .00000405  00000+0  24828-4 0  9997","line2":"2 53794  53.1582 104.1146 0001250  90.2040 269.9105 15.31705322223349","mean_motion":15.31705322,"eccentricity":0.000125,"inclination_deg":53.1582,"raan_deg":104.1146,"arg_perigee_deg":90.204,"mean_anomaly_deg":269.9105,"bstar":2.4828e-5,"rev_number":22334,"period_min":94.012861306752,"perigee_km":469.86802302518,"apogee_km":471.58023830785,"semimajor_km":6848.8611306665,"source":"CELESTRAK","updated_at":"2026-09-21T09:00:32.994625Z"}}}